This demonstration page uses our WeatherBlox Daily Observations layout. Learn more.

Left ArrowRight Arrow

36.17497, -115.13722

Hourly Observations for March 24, 2019

Temp ( °F °C ) Dew Point ( °F °C ) Humidity (%) Winds ( mph kmh ) Pressure ( in mb ) Visibility ( mi km ) Precip ( " mm )
12:53 am 00:53 Clear 58 14.4 33 0.6 39 39 SW 13 20 29.99 1016 10 16 0.00 0.00
1:53 am 01:53 Clear 55 12.8 33 0.6 44 44 NNW 14 22 30.01 1016 10 16 0.00 0.00
2:11 am 02:11 Clear 55 12.8 34 1.1 45 45 N 8 13 29.98 1015 10 16 0.00 0.00
2:53 am 02:53 Clear 57 13.9 35 1.7 44 44 NW 16 26 30.03 1017 10 16 0.00 0.00
3:53 am 03:53 Clear 57 13.9 34 1.1 42 42 NW 20 31 30.05 1018 10 16 0.00 0.00
4:53 am 04:53 Clear 56 13.3 34 1.1 44 44 N 8 13 30.08 1019 10 16 0.00 0.00
5:53 am 05:53 Clear 53 11.7 35 1.7 51 51 NNW 12 19 30.10 1019 10 16 0.00 0.00
6:53 am 06:53 Sunny 53 11.7 34 1.1 48 48 NNW 13 20 30.12 1020 10 16 0.00 0.00
7:53 am 07:53 Sunny 53 11.7 34 1.1 48 48 VRB 3 6 30.16 1021 10 16 0.00 0.00
8:53 am 08:53 Sunny 59 15 34 1.1 39 39 NNW 14 22 30.16 1021 10 16 0.00 0.00
9:53 am 09:53 Sunny 62 16.7 33 0.6 34 34 N 14 22 30.19 1022 10 16 0.00 0.00
10:53 am 10:53 Sunny 64 17.8 32 0 30 30 NNE 13 20 30.19 1023 10 16 0.00 0.00
11:53 am 11:53 Sunny 66 18.9 25 -3.9 21 21 VRB 5 7 30.20 1023 10 16 0.00 0.00
12:53 pm 12:53 Sunny 67 19.4 21 -6.1 17 17 ENE 5 7 30.19 1023 10 16 0.00 0.00
1:53 pm 13:53 Sunny 69 20.6 19 -7.2 15 15 undefined N/A 30.18 1022 10 16 0.00 0.00
2:53 pm 14:53 Sunny 69 20.6 21 -6.1 16 16 Calm 30.16 1022 10 16 0.00 0.00
3:53 pm 15:53 Sunny 70 21.1 22 -5.6 16 16 Calm 30.15 1021 10 16 0.00 0.00
4:53 pm 16:53 Sunny 71 21.7 22 -5.6 16 16 Calm 30.15 1021 10 16 0.00 0.00
5:53 pm 17:53 Sunny 70 21.1 22 -5.6 16 16 ESE 3 6 30.15 1021 10 16 0.00 0.00
6:53 pm 18:53 Sunny 68 20 21 -6.1 17 17 SE 3 6 30.17 1022 10 16 0.00 0.00
7:53 pm 19:53 Clear 65 18.3 25 -3.9 22 22 ESE 6 9 30.19 1022 10 16 0.00 0.00
8:53 pm 20:53 Clear 63 17.2 26 -3.3 25 25 ENE 5 7 30.20 1023 10 16 0.00 0.00
9:53 pm 21:53 Clear 62 16.7 26 -3.3 25 25 WNW 3 6 30.22 1023 10 16 0.00 0.00
10:53 pm 22:53 Clear 61 16.1 26 -3.3 26 26 WNW 3 6 30.22 1024 10 16 0.00 0.00
11:53 pm 23:53 Clear 56 13.3 30 -1.1 37 37 WNW 3 6 30.22 1023 10 16 0.00 0.00

Powered by AerisWeather